Snowfall_Accumulation
2.1 0.7 0.2 1.3 2.2 3.0 10.4 12.4 10.2 12.4 6.7 8.0 6.4 5.1 4.1 3.2 2.2 1.8 2.5 2.3 2.5 2.6 2.6 4.0 2.8 3.2 3.0 2.5 1.3 1.8 1.6 2.0 3.2 3.7 1.8 0.2 0.0 0.0 0.0 0.0 0.0 0.0 0.0 0.0
1.1 0.0 0.0 0.4 0.4 0.6 1.7 6.9 7.0 5.0 6.0 6.0 3.0 3.1 4.5 3.4 2.0 1.9 1.8 1.7 1.7 1.7 1.6 2.1 3.7 2.9 3.5 4.0 3.1 1.7 2.1 2.1 2.0 1.9 4.2 2.5 0.2 0.0 0.0 0.0 0.0 0.0 0.0 0.0
2.1 0.0 0.0 1.7 2.2 1.1 3.5 3.2 4.1 5.3 8.0 2.2 3.1 3.5 3.2 4.0 3.6 2.3 1.6 1.5 1.2 1.1 1.1 0.9 1.4 2.4 2.7 2.9 3.7 3.2 2.2 2.8 1.2 2.1 1.1 3.5 3.3 1.3 0.0 0.0 0.0 0.0 0.0 0.0
3.9 0.9 7.6 1.6 0.1 0.7 1.2 1.5 1.3 1.7 2.2 2.1 1.9 3.2 2.4 1.9 2.3 3.7 2.6 1.4 1.1 0.7 0.4 0.1 0.1 0.3 1.4 1.6 2.0 3.5 3.5 2.8 3.3 1.8 1.8 1.5 2.4 3.3 2.7 0.2 0.0 0.0 0.0 0.0
10.7 2.7 1.0 0.3 0.3 1.5 2.4 2.0 0.4 0.9 0.4 0.6 0.8 0.9 2.1 0.3 0.5 0.8 1.1 1.7 1.5 0.7 0.2 0.0 0.0 0.0 0.1 0.5 1.1 1.6 2.8 3.1 3.0 3.1 3.1 1.9 1.6 1.2 1.9 2.7 0.5 0.0 0.0 0.0
3.1 5.2 2.7 2.0 0.0 0.0 0.2 2.2 0.0 0.1 0.1 0.2 0.1 2.3 1.0 0.3 0.2 0.1 0.1 0.1 0.3 0.1 0.2 0.1 0.0 0.0 0.0 0.1 0.2 0.5 1.1 1.8 1.8 2.6 2.6 3.3 2.5 1.9 1.3 1.0 1.5 0.3 0.0 0.0
2.2 3.4 1.9 0.4 0.0 0.0 2.3 0.4 0.0 0.2 0.2 0.4 2.0 0.5 0.1 0.0 0.0 0.0 0.0 0.0 0.0 0.0 0.0 0.0 0.0 0.0 0.0 0.0 0.0 0.1 0.1 0.3 0.7 1.2 1.9 2.2 2.3 2.3 1.8 1.5 1.2 1.1 0.5 0.1
1.4 2.2 7.4 0.2 0.4 5.0 2.1 1.0 0.3 0.5 0.3 1.0 0.2 0.1 0.0 0.0 0.1 0.0 0.0 0.0 0.0 0.0 0.0 0.0 0.0 0.0 0.0 0.0 0.0 0.0 0.0 0.1 0.2 0.4 0.8 1.1 1.6 2.1 2.2 2.1 1.9 1.7 1.6 0.8
6.1 1.9 1.6 1.4 6.1 3.8 4.9 6.4 3.4 3.1 0.7 1.3 0.9 0.3 0.2 0.2 0.3 0.3 0.2 0.1 0.0 0.0 0.0 0.0 0.0 0.0 0.0 0.0 0.0 0.0 0.0 0.0 0.1 0.2 0.2 0.4 0.8 1.2 1.8 2.3 2.4 2.3 2.2 2.2
6.9 3.0 3.6 4.5 5.7 2.9 4.3 6.3 5.0 3.6 2.7 1.2 1.8 0.8 0.4 0.4 1.1 0.7 0.4 0.5 0.2 0.1 0.1 0.1 0.0 0.0 0.0 0.0 0.0 0.0 0.0 0.0 0.0 0.0 0.2 0.2 0.3 0.5 0.7 1.3 1.7 2.2 2.1 1.9
4.1 4.2 3.3 1.5 4.0 6.3 6.2 3.8 5.3 4.2 5.2 5.5 3.1 3.3 3.0 2.5 2.7 2.5 1.9 1.2 0.7 0.6 0.4 0.2 0.1 0.0 0.0 0.0 0.0 0.0 0.0 0.0 0.0 0.0 0.0 0.1 0.2 0.2 0.6 0.5 0.6 0.8 1.2 1.4
9.7 9.4 12.4 9.9 9.0 7.4 6.8 9.6 10.7 8.2 4.9 5.2 6.1 7.3 4.1 4.0 4.1 4.6 3.4 2.6 1.7 1.5 1.0 1.0 0.7 0.4 0.2 0.1 0.1 0.1 0.0 0.0 0.0 0.0 0.0 0.0 0.0 0.1 nan nan nan nan nan 0.3
18.4 11.8 14.8 12.6 7.8 8.0 10.0 11.5 9.4 10.4 10.9 10.4 10.6 9.0 6.9 8.6 9.1 nan 6.2 6.5 6.0 6.2 4.3 3.0 2.0 1.4 0.9 0.7 0.3 0.2 0.2 0.1 0.0 0.0 0.1 0.0 0.0 0.1 0.0 0.0 nan nan nan nan
9.0 5.3 9.0 12.2 21.3 13.1 11.5 14.5 9.9 9.8 10.3 11.6 12.5 9.6 10.6 10.8 8.6 8.3 9.9 9.5 6.8 5.4 4.6 4.1 3.7 3.7 2.8 2.1 1.7 1.2 0.9 nan 0.3 0.3 0.1 0.1 0.1 0.0 0.0 0.1 0.0 0.0 nan nan
9.7 8.8 12.6 5.2 5.5 8.6 6.7 6.6 5.5 7.4 6.3 6.8 6.3 8.8 7.3 6.0 6.4 8.3 7.2 6.7 6.4 4.7 4.1 3.4 3.3 4.4 4.1 3.1 3.2 3.4 2.5 2.3 2.0 1.5 0.7 0.3 0.3 0.2 0.1 0.1 0.0 0.0 0.0 0.0
5.0 4.4 2.6 4.6 4.0 4.3 2.9 2.3 2.5 4.4 2.1 1.7 0.7 1.2 2.5 3.0 4.4 4.0 2.7 3.4 6.0 6.7 4.7 3.9 2.4 3.2 3.9 4.4 3.4 2.2 2.7 nan 2.8 2.5 2.2 1.7 1.2 1.0 0.8 0.9 1.1 0.6 0.5 0.3
1.4 3.4 1.1 1.4 0.9 0.5 0.4 0.1 0.3 0.3 0.2 0.2 0.2 0.1 0.2 0.7 1.2 1.7 2.1 2.0 2.2 4.9 5.2 3.5 3.2 1.9 1.8 2.4 3.6 4.3 2.8 2.6 nan 3.3 3.1 2.9 2.8 2.5 2.0 1.4 1.6 1.6 1.3 0.8
0.3 0.3 0.1 0.1 0.1 0.0 0.0 0.0 0.0 0.0 0.0 0.0 0.0 0.1 0.2 0.3 0.6 0.6 1.3 1.3 1.3 1.3 2.2 2.9 2.8 1.4 1.7 1.5 2.2 2.0 2.8 3.5 2.9 3.0 3.0 4.0 3.7 3.4 3.8 3.4 3.2 2.9 2.3 1.7
0.0 0.1 0.0 0.0 0.0 0.0 0.0 0.0 0.0 0.1 0.1 0.1 0.3 0.2 0.1 0.1 0.1 0.2 0.3 0.4 0.7 1.0 1.1 1.5 nan 1.3 1.1 1.4 1.5 1.6 1.9 2.2 2.4 2.7 2.8 nan 3.1 3.3 3.6 3.9 3.4 2.8 2.7 2.8
0.1 0.0 0.0 0.0 0.0 0.1 0.1 0.0 0.2 0.3 0.1 0.4 0.3 0.3 0.2 0.1 0.1 0.2 0.1 0.2 0.1 1.0 0.1 0.4 1.1 1.0 0.9 0.7 nan 1.2 1.3 1.9 2.0 1.9 2.1 1.9 2.2 2.7 2.8 nan 2.9 3.0 2.8 2.7
0.0 0.0 0.0 0.1 0.1 0.1 0.2 0.5 0.6 0.6 0.5 0.3 0.5 0.4 0.3 0.1 0.0 0.1 0.2 0.4 0.0 0.3 0.1 nan 0.4 0.8 0.3 1.1 0.8 1.1 1.1 1.2 1.5 1.9 1.7 2.0 1.9 1.9 2.4 2.8 2.7 2.8 2.9 2.9
0.1 0.1 0.1 0.2 0.2 0.4 0.4 0.4 0.4 0.2 0.2 0.1 0.1 0.1 0.1 0.1 0.1 0.0 0.0 0.2 0.1 nan 0.3 0.3 0.3 nan 1.2 nan 0.6 1.0 1.5 1.4 1.4 1.4 1.4 1.6 2.0 2.3 2.5 2.7 3.4 3.0 3.6 4.0
0.6 0.3 0.3 0.7 0.9 0.6 0.2 0.1 0.2 0.2 0.2 0.1 0.1 0.1 0.1 0.1 0.4 0.8 0.3 0.0 0.2 nan 0.7 0.8 nan nan nan 1.7 1.9 1.4 1.3 1.7 2.6 2.6 2.4 2.8 2.6 3.0 3.2 3.4 3.3 3.4 3.7 3.7
0.2 0.5 0.6 0.4 0.5 0.3 0.6 0.2 0.2 0.1 0.1 0.1 0.1 0.1 0.2 0.6 0.3 0.2 0.1 nan nan 0.3 0.3 1.3 nan nan nan 2.2 1.3 0.7 0.6 0.6 0.9 1.5 1.8 nan 3.3 3.1 3.5 3.2 4.0 3.1 3.4 3.7
0.7 0.6 0.7 0.6 0.5 0.5 0.2 0.1 0.1 0.1 0.1 0.2 0.1 0.1 0.1 0.3 0.5 0.2 0.6 0.3 nan 0.4 0.4 nan nan nan 2.6 0.7 0.4 0.5 0.5 0.9 1.8 1.6 1.4 2.8 3.3 4.1 3.9 4.3 4.9 4.9 5.6 5.1
0.3 0.5 0.4 0.4 0.6 0.2 0.1 0.1 0.5 0.5 0.3 0.3 0.0 0.0 0.1 0.2 0.1 0.2 0.2 0.3 0.4 nan 0.7 0.4 0.4 0.5 0.5 0.5 0.6 0.5 0.7 0.9 1.0 0.9 1.8 2.7 3.3 4.2 5.7 5.3 5.5 5.5 5.2 6.1
0.3 nan 0.8 0.3 0.0 0.0 0.1 0.8 2.4 0.7 0.3 0.1 0.1 0.3 0.5 0.3 0.1 0.2 nan 0.2 0.1 0.2 0.3 0.3 0.4 nan 0.7 0.7 1.0 1.1 1.4 1.4 nan 3.6 3.9 5.4 6.0 6.7 5.3 5.3 6.4 5.8 6.1 5.9
Water_Equivalent
0.16 0.06 0.02 0.08 0.14 0.18 0.79 0.78 0.70 0.69 0.37 0.48 0.43 0.35 0.31 0.27 0.20 0.16 0.22 0.22 0.24 0.25 0.26 0.51 0.35 0.59 0.55 0.52 0.29 0.42 0.38 0.32 0.46 0.77 0.35 0.03 0.00 0.00 0.00 0.00 0.00 0.00 0.00 0.00
0.09 0.00 0.00 0.03 0.02 0.04 0.11 0.41 0.40 0.28 0.32 0.42 0.24 0.25 0.33 0.26 0.17 0.15 0.15 0.15 0.15 0.17 0.16 0.22 0.46 0.33 0.60 0.71 0.60 0.37 0.51 0.46 0.45 0.31 0.86 0.52 0.04 0.00 0.00 0.00 0.00 0.00 0.00 0.00
0.15 0.00 0.00 0.16 0.11 0.06 0.19 0.18 0.23 0.30 0.44 0.15 0.21 0.24 0.22 0.29 0.28 0.18 0.13 0.13 0.10 0.10 0.11 0.09 0.15 0.29 0.30 0.44 0.64 0.53 0.39 0.58 0.28 0.49 0.20 0.62 0.67 0.23 0.00 0.00 0.00 0.00 0.00 0.00
0.35 0.06 0.46 0.09 0.01 0.05 0.07 0.09 0.08 0.11 0.14 0.14 0.12 0.24 0.18 0.15 0.18 0.29 0.20 0.12 0.10 0.06 0.03 0.01 0.01 0.03 0.17 0.19 0.26 0.52 0.50 0.42 0.57 0.39 0.41 0.37 0.45 0.60 0.54 0.04 0.00 0.00 0.00 0.00
0.81 0.18 0.06 0.02 0.02 0.09 0.13 0.12 0.02 0.05 0.02 0.04 0.05 0.07 0.15 0.03 0.04 0.07 0.09 0.14 0.13 0.07 0.02 0.00 0.00 0.00 0.01 0.06 0.12 0.17 0.33 0.39 0.41 0.46 0.57 0.37 0.40 0.29 0.38 0.58 0.10 0.00 0.00 0.00
0.37 0.41 0.23 0.11 0.00 0.00 0.01 0.13 0.00 0.01 0.01 0.01 0.01 0.13 0.06 0.02 0.02 0.01 0.01 0.01 0.03 0.01 0.02 0.01 0.00 0.00 0.00 0.01 0.03 0.05 0.12 0.21 0.23 0.33 0.37 0.53 0.41 0.41 0.37 0.27 0.42 0.08 0.00 0.00
0.22 0.34 0.16 0.02 0.00 0.00 0.16 0.03 0.00 0.02 0.02 0.03 0.12 0.04 0.01 0.00 0.00 0.00 0.00 0.00 0.00 0.00 0.00 0.00 0.00 0.00 0.00 0.00 0.00 0.01 0.02 0.04 0.09 0.15 0.24 0.28 0.35 0.39 0.34 0.39 0.35 0.41 0.21 0.05
0.17 0.22 0.80 0.02 0.04 0.30 0.15 0.09 0.02 0.04 0.03 0.07 0.02 0.01 0.00 0.00 0.01 0.01 0.00 0.00 0.00 0.00 0.00 0.00 0.00 0.00 0.00 0.00 0.00 0.00 0.00 0.02 0.03 0.06 0.11 0.14 0.20 0.28 0.33 0.33 0.37 0.40 0.40 0.26
0.53 0.14 0.12 0.12 0.53 0.38 0.45 0.55 0.29 0.27 0.07 0.12 0.08 0.03 0.02 0.03 0.04 0.04 0.02 0.01 0.00 0.01 0.00 0.00 0.01 0.01 0.01 0.00 0.00 0.00 0.00 0.00 0.01 0.02 0.03 0.05 0.10 0.14 0.21 0.31 0.32 0.32 0.35 0.36
0.59 0.40 0.38 0.46 0.62 0.30 0.45 0.60 0.48 0.34 0.26 0.11 0.15 0.07 0.04 0.05 0.17 0.09 0.05 0.05 0.03 0.01 0.01 0.01 0.00 0.00 0.00 0.00 0.00 0.00 0.00 0.00 0.00 0.00 0.02 0.02 0.04 0.06 0.08 0.15 0.20 0.27 0.26 0.24
0.41 0.53 0.42 0.21 0.43 0.64 0.66 0.43 0.61 0.55 0.58 0.60 0.35 0.41 0.35 0.30 0.36 0.33 0.27 0.17 0.11 0.09 0.06 0.04 0.01 0.00 0.00 0.01 0.00 0.00 0.00 0.00 0.00 0.00 0.00 0.01 0.02 0.02 0.07 0.07 0.08 0.09 0.14 0.17
0.79 0.85 1.15 1.21 0.95 0.80 0.70 1.08 1.38 0.88 0.53 0.59 0.66 0.79 0.47 0.46 0.50 0.59 0.42 0.32 0.23 0.19 0.14 0.13 0.11 0.06 0.04 0.03 0.02 0.01 0.00 0.00 0.00 0.00 0.00 0.00 0.00 0.01 nan nan nan nan nan 0.04
1.84 1.40 1.70 1.55 1.07 0.97 1.09 1.34 1.09 1.20 1.30 1.24 1.35 1.10 0.82 1.02 1.17 nan 0.87 0.89 0.75 0.79 0.56 0.38 0.24 0.17 0.12 0.11 0.05 0.03 0.02 0.01 0.00 0.00 0.01 0.00 0.01 0.01 0.00 0.00 nan nan nan nan
1.12 0.62 1.04 1.39 2.46 1.61 1.39 1.79 1.15 1.21 1.25 1.40 1.49 1.16 1.26 1.24 0.99 0.95 1.11 1.12 0.80 0.62 0.50 0.45 0.40 0.39 0.34 0.30 0.26 0.20 0.17 nan 0.07 0.04 0.01 0.01 0.01 0.00 0.01 0.01 0.00 0.00 nan nan
1.11 1.02 1.45 0.66 0.67 1.04 0.84 0.79 0.61 0.81 0.73 0.80 0.74 0.98 0.80 0.63 0.67 0.86 0.78 0.74 0.71 0.52 0.45 0.37 0.33 0.44 0.45 0.36 0.40 0.46 0.35 0.33 0.30 0.24 0.12 0.06 0.06 0.05 0.02 0.01 0.00 0.00 0.00 0.00
0.62 0.53 0.30 0.50 0.45 0.49 0.33 0.27 0.26 0.48 0.24 0.20 0.08 0.12 0.24 0.30 0.44 0.41 0.28 0.35 0.56 0.63 0.49 0.40 0.24 0.33 0.41 0.47 0.37 0.25 0.33 nan 0.36 0.34 0.31 0.23 0.18 0.16 0.15 0.19 0.22 0.13 0.09 0.06
0.14 0.33 0.13 0.15 0.09 0.06 0.05 0.02 0.03 0.03 0.02 0.02 0.02 0.01 0.02 0.07 0.12 0.16 0.20 0.21 0.22 0.49 0.54 0.37 0.32 0.20 0.20 0.24 0.37 0.45 0.31 0.30 nan 0.39 0.38 0.36 0.35 0.33 0.27 0.23 0.28 0.29 0.25 0.20
0.05 0.05 0.02 0.02 0.01 0.00 0.00 0.00 0.00 0.00 0.00 0.00 0.00 0.01 0.03 0.04 0.07 0.06 0.13 0.14 0.14 0.15 0.24 0.32 0.30 0.14 0.18 0.16 0.21 0.20 0.29 0.38 0.33 0.33 0.37 0.50 0.44 0.43 0.49 0.44 0.43 0.41 0.33 0.30
0.00 0.01 0.00 0.00 0.00 0.00 0.00 0.00 0.00 0.00 0.00 0.01 0.03 0.02 0.01 0.01 0.02 0.02 0.05 0.07 0.08 0.10 0.10 0.15 nan 0.12 0.11 0.15 0.15 0.15 0.19 0.22 0.25 0.28 0.30 nan 0.38 0.39 0.43 0.45 0.40 0.34 0.34 0.36
0.01 0.00 0.00 0.00 0.00 0.01 0.01 0.00 0.02 0.02 0.01 0.03 0.02 0.02 0.02 0.02 0.01 0.02 0.01 0.02 0.02 0.09 0.01 0.04 0.12 0.09 0.09 0.07 nan 0.10 0.12 0.17 0.17 0.17 0.20 0.18 0.22 0.27 0.30 nan 0.35 0.36 0.32 0.30
0.00 0.00 0.00 0.01 0.01 0.01 0.02 0.04 0.04 0.04 0.04 0.02 0.04 0.03 0.02 0.01 0.01 0.02 0.04 0.09 0.00 0.03 0.01 nan 0.06 0.11 0.03 0.10 0.07 0.10 0.09 0.10 0.13 0.16 0.15 0.17 0.16 0.19 0.24 0.28 0.31 0.32 0.34 0.34
0.04 0.02 0.03 0.02 0.03 0.04 0.03 0.03 0.03 0.02 0.01 0.01 0.02 0.02 0.02 0.02 0.01 0.01 0.01 0.04 0.05 nan 0.10 0.09 0.09 nan 0.13 nan 0.09 0.08 0.12 0.11 0.11 0.12 0.15 0.16 0.20 0.28 0.35 0.39 0.51 0.41 0.50 0.57
0.17 0.05 0.05 0.07 0.11 0.07 0.03 0.02 0.03 0.03 0.03 0.02 0.02 0.01 0.02 0.01 0.04 0.07 0.03 0.01 0.06 nan 0.10 0.12 nan nan nan 0.20 0.22 0.18 0.17 0.21 0.27 0.26 0.28 0.39 0.41 0.51 0.56 0.58 0.53 0.55 0.62 0.56
0.03 0.05 0.06 0.04 0.04 0.04 0.08 0.03 0.04 0.03 0.02 0.03 0.03 0.03 0.04 0.12 0.08 0.06 0.04 nan nan 0.06 0.06 0.15 nan nan nan 0.23 0.17 0.13 0.14 0.15 0.24 0.33 0.32 nan 0.60 0.58 0.60 0.56 0.73 0.50 0.56 0.60
0.08 0.07 0.09 0.09 0.06 0.05 0.02 0.02 0.03 0.03 0.04 0.05 0.03 0.02 0.02 0.08 0.11 0.06 0.12 0.10 nan 0.10 0.10 nan nan nan 0.24 0.12 0.13 0.17 0.18 0.30 0.56 0.42 0.37 0.64 0.71 0.79 0.66 0.75 0.80 0.78 0.94 0.83
0.02 0.04 0.03 0.03 0.05 0.02 0.01 0.01 0.03 0.03 0.02 0.02 0.00 0.00 0.04 0.04 0.03 0.05 0.05 0.08 0.08 nan 0.14 0.12 0.13 0.12 0.14 0.15 0.16 0.15 0.19 0.23 0.29 0.27 0.46 0.62 0.74 0.87 0.93 0.84 0.82 0.81 0.76 0.86
0.06 nan 0.10 0.02 0.00 0.00 0.01 0.06 0.17 0.05 0.02 0.01 0.01 0.03 0.04 0.02 0.03 0.04 nan 0.02 0.03 0.06 0.08 0.09 0.12 nan 0.18 0.18 0.21 0.23 0.29 0.31 nan 0.65 0.73 1.01 1.02 1.10 0.84 0.79 0.92 0.74 0.79 0.73
SL_Ratio
13.3 12.0 11.9 15.4 16.1 16.8 13.2 15.9 14.6 17.9 17.9 16.6 14.9 14.4 13.2 12.0 11.3 11.3 11.2 10.7 10.5 10.4 10.0 7.9 7.9 5.5 5.4 4.7 4.4 4.2 4.3 6.4 6.9 4.8 5.0 5.3 nan nan nan nan nan nan nan nan
12.6 12.0 11.7 11.9 16.1 15.8 16.5 16.9 17.5 18.0 18.9 14.2 12.9 12.5 13.8 13.2 12.2 12.3 11.7 11.3 10.7 10.4 10.1 9.8 8.2 8.7 5.8 5.7 5.2 4.6 4.1 4.5 4.4 6.2 4.9 4.8 5.6 nan nan nan nan nan nan nan
14.6 13.0 13.8 11.0 18.8 18.2 18.1 17.3 17.3 17.8 18.2 14.5 14.9 14.4 14.4 13.9 13.1 13.0 12.3 11.2 11.5 11.2 10.7 10.1 9.0 8.1 8.9 6.6 5.8 6.0 5.7 4.8 4.4 4.4 5.8 5.8 4.9 5.6 10.0 nan nan nan nan nan
11.1 14.9 16.4 17.3 13.1 14.5 17.7 17.6 16.6 16.2 15.8 15.4 15.0 13.4 13.4 12.9 13.0 13.0 12.8 12.1 10.7 11.3 11.2 10.0 8.9 8.7 8.3 8.6 7.6 6.7 7.2 6.5 5.8 4.7 4.3 4.1 5.3 5.5 4.9 6.0 6.3 nan nan nan
13.1 15.1 16.4 16.6 14.9 17.2 17.7 17.3 17.2 17.6 16.8 16.1 14.3 12.1 13.6 12.0 11.3 12.2 11.6 11.9 11.7 10.2 10.6 9.2 5.0 7.9 7.6 8.7 9.2 9.3 8.4 8.1 7.5 6.7 5.5 5.2 3.9 4.1 4.9 4.7 5.6 nan nan nan
8.3 12.7 12.0 17.9 8.3 nan 15.9 16.8 nan 15.4 15.7 15.2 13.5 17.9 16.5 12.4 11.2 9.1 9.4 9.4 10.5 10.8 9.4 9.3 nan nan 8.3 9.5 9.1 10.0 9.6 8.8 8.0 8.0 7.1 6.3 6.0 4.8 3.5 3.7 3.5 3.9 nan nan
10.1 10.1 11.6 16.1 6.7 nan 14.2 11.4 17.5 14.2 14.0 14.5 16.4 14.5 11.7 10.8 10.7 8.3 10.0 5.0 10.0 nan nan 10.0 nan nan nan nan 8.8 8.3 8.0 7.5 7.4 8.2 7.8 8.0 6.7 5.9 5.3 4.0 3.3 2.8 2.6 2.6
8.6 9.7 9.2 10.0 9.6 16.4 14.1 11.1 13.5 12.6 12.0 13.2 12.3 11.9 11.0 7.5 8.2 7.0 10.0 10.0 nan 7.5 5.0 nan 6.7 7.5 nan nan nan 10.0 8.3 7.9 7.6 7.5 7.9 8.0 8.1 7.7 6.6 6.3 5.2 4.2 3.9 2.9
11.5 14.2 13.2 11.9 11.5 10.1 10.9 11.6 11.7 11.5 10.5 11.0 10.9 10.6 10.2 8.4 6.9 6.5 6.8 9.5 10.0 8.3 7.5 nan 5.6 5.5 9.4 10.0 nan nan 10.0 8.3 8.3 7.5 7.6 7.7 8.4 8.5 8.4 7.4 7.4 7.0 6.3 6.1
11.6 7.4 9.3 9.9 9.1 9.7 9.6 10.6 10.5 10.3 10.7 10.6 11.9 10.5 8.7 7.7 6.2 7.0 7.2 9.0 8.5 8.4 7.6 6.9 6.0 5.8 8.3 5.0 5.0 10.0 nan nan nan 9.0 8.2 7.9 8.0 8.2 8.6 8.5 8.4 8.2 8.1 7.9
10.0 7.9 7.8 7.3 9.2 9.9 9.5 8.8 8.6 7.6 9.0 9.2 8.9 7.9 8.5 8.4 7.6 7.5 7.3 6.8 6.7 7.1 6.9 6.8 5.9 6.7 5.0 5.8 7.9 10.0 10.0 nan nan nan nan 9.1 8.2 8.5 8.4 8.1 7.9 8.2 8.2 7.9
12.3 11.0 10.8 8.2 9.5 9.3 9.8 8.8 7.8 9.3 9.1 8.8 9.2 9.2 8.8 8.8 8.2 7.9 8.2 8.0 7.5 7.7 7.5 7.3 6.4 5.7 4.8 4.5 5.6 9.5 9.2 7.5 8.3 8.3 7.5 5.0 6.7 9.1 nan nan nan nan nan 7.0
10.0 8.4 8.7 8.1 7.3 8.3 9.2 8.6 8.6 8.7 8.3 8.4 7.8 8.2 8.4 8.5 7.8 nan 7.1 7.3 8.0 7.9 7.7 8.0 8.3 8.3 7.2 6.7 5.6 6.4 8.3 9.0 7.9 8.3 10.0 12.5 8.3 7.3 11.0 nan nan nan nan nan
8.1 8.6 8.6 8.8 8.6 8.1 8.3 8.1 8.6 8.1 8.2 8.3 8.4 8.3 8.4 8.8 8.6 8.7 8.9 8.4 8.4 8.6 9.1 9.2 9.3 9.4 8.4 7.1 6.6 5.8 5.3 nan 4.6 7.4 5.4 7.8 8.5 9.3 7.5 8.3 8.0 nan nan nan
8.7 8.6 8.7 7.8 8.1 8.3 8.0 8.3 9.0 9.1 8.5 8.5 8.5 8.9 9.1 9.5 9.7 9.7 9.3 9.0 8.9 9.1 9.2 9.4 9.8 10.0 9.1 8.6 8.0 7.5 7.2 6.8 6.4 6.1 5.7 5.0 4.3 3.6 3.8 4.3 9.2 5.0 5.0 nan
8.0 8.2 8.5 9.3 8.9 8.7 8.7 8.6 9.7 9.2 8.9 8.9 9.4 10.3 10.3 9.9 10.0 9.9 9.7 9.8 10.7 10.7 9.7 9.8 9.9 9.6 9.4 9.3 9.2 8.8 8.1 nan 7.6 7.3 7.3 7.1 6.7 6.3 5.5 5.0 5.1 5.0 5.3 4.8
9.6 10.5 8.9 9.3 9.0 8.9 8.5 7.7 9.8 10.4 10.3 10.3 10.6 9.4 10.0 10.2 10.5 10.8 10.0 9.4 9.7 10.0 9.6 9.4 9.9 9.4 9.1 9.7 9.8 9.4 9.1 8.8 nan 8.4 8.2 8.1 8.0 7.6 7.4 6.4 5.7 5.6 5.4 4.1
6.7 6.9 6.2 7.7 9.1 13.8 12.5 5.0 7.5 10.0 12.5 11.7 12.5 10.0 7.2 8.1 9.1 9.0 9.7 9.5 9.1 8.7 9.5 9.1 9.4 9.9 9.3 9.6 10.4 9.9 9.6 9.2 8.9 8.9 8.3 8.0 8.3 7.8 7.7 7.6 7.5 7.0 7.0 5.7
5.7 5.3 5.0 nan nan nan 10.0 12.5 15.0 14.3 12.9 12.0 12.6 10.6 10.7 12.5 8.8 7.9 5.8 6.5 8.5 10.0 10.4 9.6 nan 10.2 10.4 9.5 10.1 10.2 10.1 10.1 9.5 9.5 9.2 nan 8.1 8.4 8.4 8.6 8.6 8.3 7.9 7.9
5.3 5.0 nan nan nan 11.9 12.9 15.0 13.3 13.4 12.5 12.5 12.4 13.4 11.3 9.6 10.0 9.8 9.7 7.9 9.2 10.8 8.3 9.1 9.8 10.4 10.5 10.5 nan 11.3 11.2 11.4 11.4 11.1 10.4 10.5 10.0 9.9 9.5 nan 8.3 8.3 8.6 9.0
2.5 2.5 nan 12.9 13.3 12.8 12.4 12.7 13.1 13.4 12.3 13.2 14.2 14.1 14.7 14.5 6.1 4.6 5.4 4.0 3.0 7.6 6.2 nan 6.5 7.6 10.0 10.9 11.7 11.9 12.4 12.3 12.2 12.3 11.6 11.7 11.5 10.1 9.7 9.8 8.9 8.7 8.6 8.6
3.2 3.7 4.5 7.3 9.4 10.4 12.3 12.8 12.5 11.6 11.1 9.3 5.7 5.1 6.1 6.3 5.3 3.8 3.8 6.1 2.5 nan 3.6 2.8 3.0 nan 8.8 nan 7.5 12.6 12.9 12.9 12.6 11.0 9.4 9.9 9.6 8.1 7.0 7.1 6.7 7.4 7.2 7.0
3.3 5.1 6.3 8.8 8.3 8.6 5.7 4.6 6.8 7.6 6.5 4.7 5.3 4.5 4.8 7.4 9.2 11.3 11.4 3.2 3.3 nan 7.0 7.2 nan nan nan 8.7 8.3 8.1 7.5 7.9 9.6 9.8 8.3 7.0 6.4 5.9 5.7 5.9 6.2 6.3 6.1 6.5
6.3 9.6 10.4 10.8 10.3 8.1 6.6 5.6 4.1 3.5 4.0 4.5 4.2 3.8 4.3 5.5 3.7 3.1 3.3 nan nan 5.1 5.8 8.8 nan nan nan 9.5 7.9 5.3 4.3 3.8 3.8 4.5 5.7 nan 5.5 5.4 5.8 5.8 5.5 6.1 6.1 6.3
8.9 8.2 7.7 7.1 8.8 10.4 8.1 4.5 5.1 4.7 3.2 3.9 3.7 3.3 4.0 3.7 5.0 3.6 4.9 3.6 nan 4.2 3.5 nan nan nan 10.9 6.3 3.0 2.9 2.9 2.9 3.1 3.9 3.9 4.4 4.6 5.2 5.8 5.8 6.1 6.3 6.0 6.1
14.2 13.9 14.2 14.0 13.6 14.0 12.5 12.5 13.7 14.7 12.3 14.8 13.3 5.0 3.4 3.9 4.0 4.0 3.5 3.6 5.3 nan 5.1 3.3 3.5 3.8 3.8 3.2 3.6 3.3 3.5 3.8 3.4 3.4 3.9 4.3 4.5 4.9 6.1 6.3 6.8 6.8 6.9 7.1
5.4 nan 8.4 13.6 nan 10.0 11.8 12.9 14.3 14.3 13.2 13.2 13.2 11.1 13.1 10.3 5.0 5.1 nan 8.3 4.7 3.7 3.8 3.6 3.5 nan 3.8 4.0 4.9 4.9 4.9 4.6 nan 5.5 5.4 5.4 5.8 6.0 6.4 6.8 7.0 7.8 7.8 8.2